Home > Weather > Leuven > Past weeks

Flag for Belgium Past Weather in Leuven, Belgium — Yesterday and Last 2 Weeks

Now
75 °F

Sunny.


Feels Like: 77 °F
Forecast: 67 / 90 °F
Wind: 8 mph from South

Location: Brussels National Airport

Current Time: Aug 24, 2016 at 10:51:20 AM

Latest Report: Aug 24, 2016 at 10:20 AM


Visibility: 10 mi

Pressure: 30.15 "Hg

Humidity: 61%

Dew Point: 61 °F

Location of LeuvenLocation

Past Weather in Leuven — Graph

°F

Leuven Temperature Yesterday

Maximum temperature yesterday: 84 °F (at 4:20 PM)
Minimum temperature yesterday: 55 °F (at 4:50 AM)
Average temperature yesterday: 70 °F

High & Low Weather Summary for the Past Weeks

 TemperatureHumidityPressure
High84 °F (Aug 23, 4:20 PM)100% (Aug 11, 5:50 PM)30.33 "Hg (Aug 11, 5:50 PM)
Low46 °F (Aug 11, 12:20 AM)38% (Aug 20, 5:20 PM)29.77 "Hg (Aug 19, 4:20 PM)
Average63 °F76%30.10 "Hg
* Reported Aug 9 9:20 AM — Aug 24 9:20 AM, Leuven, Weather by CustomWeather, © 2016

Note: Actual official high and low records may vary slightly from our data, if they occured in-between our weather recording intervals... More about our weather records

Advertising

Leuven Weather History for the Previous 24 Hours

Scroll right to see more
 ConditionsComfort  
Time TempWeatherWind HumidityBarometerVisibility
9:20 AM
Wed, Aug 24
72 °FPassing clouds.7 mph65%30.15 "HgN/A
8:50 AM70 °FPassing clouds.3 mph69%30.15 "HgN/A
8:20 AM68 °FSunny.2 mph73%30.15 "Hg10 mi
7:50 AM63 °FSunny.No wind88%30.15 "Hg10 mi
7:20 AM61 °FClear.1 mph88%30.15 "Hg10 mi
6:50 AM63 °FClear.3 mph77%30.15 "Hg10 mi
6:20 AM63 °FClear.1 mph77%30.15 "Hg10 mi
5:50 AM64 °FClear.3 mph78%30.15 "Hg10 mi
5:20 AM66 °FClear.5 mph73%30.15 "Hg10 mi
4:50 AM66 °FClear.6 mph73%30.15 "Hg10 mi
4:20 AM66 °FClear.6 mph68%30.15 "Hg10 mi
3:50 AM66 °FClear.5 mph73%30.15 "Hg10 mi
3:20 AM64 °FClear.3 mph73%30.15 "Hg10 mi
2:50 AM66 °FClear.5 mph73%30.15 "Hg10 mi
2:20 AM66 °FClear.6 mph78%30.18 "Hg10 mi
1:50 AM66 °FClear.6 mph83%30.18 "Hg10 mi
1:20 AM68 °FClear.3 mph78%30.18 "Hg10 mi
12:50 AM70 °FClear.6 mph73%30.18 "Hg10 mi
12:20 AM70 °FClear.7 mph73%30.18 "Hg10 mi
11:50 PM
Tue, Aug 23
70 °FClear.5 mph73%30.18 "Hg10 mi
11:20 PM72 °FClear.2 mph69%30.21 "Hg10 mi
10:50 PM72 °FClear.3 mph73%30.21 "Hg10 mi
10:20 PM72 °FClear.3 mph73%30.21 "Hg10 mi
9:50 PM72 °FClear.3 mph73%30.21 "Hg10 mi
9:20 PM73 °FSunny.5 mph69%30.21 "Hg10 mi
8:50 PM75 °FSunny.5 mph65%30.21 "Hg10 mi
8:20 PM77 °FSunny.3 mph61%30.21 "Hg10 mi
7:50 PM81 °FPassing clouds.3 mph54%30.21 "HgN/A
7:20 PM82 °FSunny.7 mph45%30.21 "Hg10 mi
6:50 PM82 °FPassing clouds.6 mph48%30.21 "HgN/A
6:20 PM82 °FPassing clouds.8 mph45%30.24 "HgN/A
5:50 PM82 °FPassing clouds.7 mph45%30.24 "HgN/A
5:20 PM82 °FPassing clouds.6 mph48%30.24 "HgN/A
4:50 PM82 °FPassing clouds.6 mph48%30.24 "HgN/A
4:20 PM84 °FPassing clouds.6 mph45%30.27 "HgN/A
3:50 PM82 °FPassing clouds.6 mph45%30.27 "HgN/A
3:20 PM82 °FPassing clouds.6 mph48%30.27 "HgN/A
2:50 PM82 °FPassing clouds.5 mph45%30.27 "HgN/A
2:20 PM81 °FPassing clouds.5 mph51%30.30 "HgN/A
1:50 PM81 °FPassing clouds.5 mph51%30.30 "HgN/A
1:20 PM81 °FPassing clouds.6 mph48%30.30 "HgN/A
12:50 PM79 °FSunny.2 mph54%30.30 "Hg10 mi
12:20 PM77 °FPassing clouds.5 mph57%30.30 "HgN/A
11:50 AM77 °FPassing clouds.3 mph57%30.30 "HgN/A
11:20 AM75 °FPassing clouds.6 mph57%30.30 "HgN/A
10:50 AM73 °FPassing clouds.6 mph61%30.33 "HgN/A
10:20 AM72 °FPassing clouds.5 mph69%30.33 "HgN/A
Weather by CustomWeather, © 2016

See weather overviewHow to use our weather pages